Time,TemperatureF,DewpointF,PressureIn,WindDirection,WindDirectionDegrees,WindSpeedMPH,WindSpeedGustMPH,Humidity,HourlyPrecipIn,Conditions,Clouds,dailyrainin,SoftwareType,DateUTC
2013-08-22 00:00:00,57.5,41.0,29.89,ESE,107,0.0,0.0,54,0.00,,,0.00,Wunderground v.1.15,2013-08-22 07:00:00,
2013-08-22 00:05:00,57.2,40.7,29.89,ESE,107,0.0,0.0,54,0.00,,,0.00,Wunderground v.1.15,2013-08-22 07:05:00,
2013-08-22 00:10:00,56.9,40.4,29.89,ESE,107,0.0,0.0,54,0.00,,,0.00,Wunderground v.1.15,2013-08-22 07:10:00,
2013-08-22 00:20:00,56.6,40.6,29.89,ESE,107,0.0,0.0,55,0.00,,,0.00,Wunderground v.1.15,2013-08-22 07:20:00,
2013-08-22 00:25:00,56.5,40.5,29.89,ESE,107,0.0,0.0,55,0.00,,,0.00,Wunderground v.1.15,2013-08-22 07:25:00,
2013-08-22 00:35:00,56.2,40.7,29.88,West,276,1.0,1.0,56,0.00,,,0.00,Wunderground v.1.15,2013-08-22 07:35:00,
2013-08-22 00:40:00,55.9,40.4,29.88,West,276,0.0,0.0,56,0.00,,,0.00,Wunderground v.1.15,2013-08-22 07:40:00,
2013-08-22 00:50:00,55.6,40.6,29.88,West,276,0.0,0.0,57,0.00,,,0.00,Wunderground v.1.15,2013-08-22 07:50:00,
2013-08-22 00:55:00,55.3,40.3,29.88,West,276,0.0,0.0,57,0.00,,,0.00,Wunderground v.1.15,2013-08-22 07:55:00,
2013-08-22 01:00:00,55.3,40.3,29.88,West,276,0.0,0.0,57,0.00,,,0.00,Wunderground v.1.15,2013-08-22 08:00:00,
2013-08-22 01:05:00,55.3,40.8,29.88,West,276,0.0,0.0,58,0.00,,,0.00,Wunderground v.1.15,2013-08-22 08:05:00,
2013-08-22 01:10:00,55.1,40.6,29.88,West,276,0.0,0.0,58,0.00,,,0.00,Wunderground v.1.15,2013-08-22 08:10:00,
2013-08-22 01:20:00,55.0,40.5,29.88,West,276,0.0,0.0,58,0.00,,,0.00,Wunderground v.1.15,2013-08-22 08:20:00,
2013-08-22 01:25:00,54.8,40.3,29.88,West,276,0.0,0.0,58,0.00,,,0.00,Wunderground v.1.15,2013-08-22 08:25:00,
2013-08-22 01:30:00,54.5,40.5,29.87,West,276,0.0,0.0,59,0.00,,,0.00,Wunderground v.1.15,2013-08-22 08:30:00,
2013-08-22 01:35:00,54.1,40.1,29.87,West,276,0.0,0.0,59,0.00,,,0.00,Wunderground v.1.15,2013-08-22 08:35:00,
2013-08-22 01:40:00,53.9,40.3,29.87,West,276,1.0,2.0,60,0.00,,,0.00,Wunderground v.1.15,2013-08-22 08:40:00,
2013-08-22 01:50:00,53.8,40.2,29.87,West,276,1.0,1.0,60,0.00,,,0.00,Wunderground v.1.15,2013-08-22 08:50:00,
2013-08-22 01:55:00,53.8,40.2,29.87,West,276,0.0,1.0,60,0.00,,,0.00,Wunderground v.1.15,2013-08-22 08:55:00,
2013-08-22 02:00:00,53.9,40.3,29.87,West,276,0.0,0.0,60,0.00,,,0.00,Wunderground v.1.15,2013-08-22 09:00:00,
2013-08-22 02:05:00,53.9,40.3,29.87,West,276,0.0,0.0,60,0.00,,,0.00,Wunderground v.1.15,2013-08-22 09:05:00,
2013-08-22 02:15:00,54.1,40.5,29.87,West,276,0.0,0.0,60,0.00,,,0.00,Wunderground v.1.15,2013-08-22 09:15:00,
2013-08-22 02:20:00,54.2,40.6,29.87,West,276,0.0,0.0,60,0.00,,,0.00,Wunderground v.1.15,2013-08-22 09:20:00,
2013-08-22 02:25:00,54.4,40.8,29.87,West,276,0.0,0.0,60,0.00,,,0.00,Wunderground v.1.15,2013-08-22 09:25:00,
2013-08-22 02:30:00,54.4,40.8,29.87,West,276,0.0,0.0,60,0.00,,,0.00,Wunderground v.1.15,2013-08-22 09:30:00,
2013-08-22 02:35:00,54.5,40.5,29.87,West,276,0.0,0.0,59,0.00,,,0.00,Wunderground v.1.15,2013-08-22 09:35:00,
2013-08-22 02:45:00,54.8,40.7,29.87,West,276,0.0,0.0,59,0.00,,,0.00,Wunderground v.1.15,2013-08-22 09:45:00,
2013-08-22 02:50:00,54.8,40.7,29.87,West,276,0.0,0.0,59,0.00,,,0.00,Wunderground v.1.15,2013-08-22 09:50:00,
2013-08-22 02:55:00,55.0,40.9,29.87,West,276,0.0,0.0,59,0.00,,,0.00,Wunderground v.1.15,2013-08-22 09:55:00,
2013-08-22 03:05:00,55.0,40.9,29.87,West,276,0.0,0.0,59,0.00,,,0.00,Wunderground v.1.15,2013-08-22 10:05:00,
2013-08-22 03:10:00,55.1,41.0,29.87,West,276,0.0,0.0,59,0.00,,,0.00,Wunderground v.1.15,2013-08-22 10:10:00,
2013-08-22 03:15:00,55.3,41.2,29.87,West,276,0.0,0.0,59,0.00,,,0.00,Wunderground v.1.15,2013-08-22 10:15:00,
2013-08-22 03:20:00,55.3,41.2,29.87,West,276,0.0,0.0,59,0.00,,,0.00,Wunderground v.1.15,2013-08-22 10:20:00,
2013-08-22 03:30:00,55.3,41.2,29.87,West,276,0.0,0.0,59,0.00,,,0.00,Wunderground v.1.15,2013-08-22 10:30:00,
2013-08-22 03:35:00,55.3,41.2,29.87,West,276,0.0,0.0,59,0.00,,,0.00,Wunderground v.1.15,2013-08-22 10:35:00,
2013-08-22 03:40:00,55.3,41.2,29.87,West,276,0.0,0.0,59,0.00,,,0.00,Wunderground v.1.15,2013-08-22 10:40:00,
2013-08-22 03:45:00,55.3,41.2,29.87,West,276,0.0,0.0,59,0.00,,,0.00,Wunderground v.1.15,2013-08-22 10:45:00,
2013-08-22 05:30:00,52.8,41.4,29.87,West,276,0.0,0.0,65,0.00,,,0.00,Wunderground v.1.15,2013-08-22 12:30:00,
2013-08-22 05:40:00,52.5,41.1,29.87,West,276,0.0,0.0,65,0.00,,,0.00,Wunderground v.1.15,2013-08-22 12:40:00,
2013-08-22 05:45:00,52.3,40.9,29.87,West,276,0.0,0.0,65,0.00,,,0.00,Wunderground v.1.15,2013-08-22 12:45:00,
2013-08-22 05:50:00,52.2,40.8,29.87,West,276,0.0,0.0,65,0.00,,,0.00,Wunderground v.1.15,2013-08-22 12:50:00,
2013-08-22 06:00:00,52.0,41.0,29.87,West,276,0.0,0.0,66,0.00,,,0.00,Wunderground v.1.15,2013-08-22 13:00:00,
2013-08-22 06:10:00,51.9,41.3,29.87,West,276,0.0,0.0,67,0.00,,,0.00,Wunderground v.1.15,2013-08-22 13:10:00,
2013-08-22 06:15:00,51.7,41.1,29.88,West,276,0.0,0.0,67,0.00,,,0.00,Wunderground v.1.15,2013-08-22 13:15:00,
2013-08-22 06:20:00,51.6,41.0,29.88,West,276,0.0,0.0,67,0.00,,,0.00,Wunderground v.1.15,2013-08-22 13:20:00,
2013-08-22 06:30:00,51.4,40.8,29.89,West,276,0.0,0.0,67,0.00,,,0.00,Wunderground v.1.15,2013-08-22 13:30:00,
2013-08-22 06:40:00,51.1,40.9,29.89,West,276,0.0,0.0,68,0.00,,,0.00,Wunderground v.1.15,2013-08-22 13:40:00,
2013-08-22 06:45:00,50.8,40.6,29.89,West,276,0.0,0.0,68,0.00,,,0.00,Wunderground v.1.15,2013-08-22 13:45:00,
2013-08-22 06:55:00,50.7,40.9,29.89,West,276,0.0,0.0,69,0.00,,,0.00,Wunderground v.1.15,2013-08-22 13:55:00,
2013-08-22 07:00:00,50.8,41.0,29.89,West,276,0.0,0.0,69,0.00,,,0.00,Wunderground v.1.15,2013-08-22 14:00:00,
2013-08-22 07:10:00,51.1,41.3,29.89,West,276,0.0,0.0,69,0.00,,,0.00,Wunderground v.1.15,2013-08-22 14:10:00,
2013-08-22 07:15:00,51.6,41.8,29.89,West,276,0.0,0.0,69,0.00,,,0.00,Wunderground v.1.15,2013-08-22 14:15:00,
2013-08-22 07:20:00,52.0,41.8,29.89,West,276,0.0,0.0,68,0.00,,,0.00,Wunderground v.1.15,2013-08-22 14:20:00,
2013-08-22 07:25:00,52.9,42.2,29.89,West,276,0.0,0.0,67,0.00,,,0.00,Wunderground v.1.15,2013-08-22 14:25:00,
2013-08-22 07:30:00,53.9,42.4,29.90,West,276,0.0,0.0,65,0.00,,,0.00,Wunderground v.1.15,2013-08-22 14:30:00,
2013-08-22 07:40:00,54.8,42.4,29.90,West,276,0.0,0.0,63,0.00,,,0.00,Wunderground v.1.15,2013-08-22 14:40:00,
2013-08-22 07:45:00,55.4,42.6,29.90,West,276,0.0,0.0,62,0.00,,,0.00,Wunderground v.1.15,2013-08-22 14:45:00,
2013-08-22 07:50:00,55.9,43.1,29.90,West,276,0.0,0.0,62,0.00,,,0.00,Wunderground v.1.15,2013-08-22 14:50:00,
2013-08-22 08:00:00,57.3,43.1,29.90,West,276,0.0,0.0,59,0.00,,,0.00,Wunderground v.1.15,2013-08-22 15:00:00,
2013-08-22 08:05:00,58.3,43.6,29.90,West,276,0.0,0.0,58,0.00,,,0.00,Wunderground v.1.15,2013-08-22 15:05:00,
2013-08-22 08:10:00,58.9,44.1,29.90,West,276,0.0,0.0,58,0.00,,,0.00,Wunderground v.1.15,2013-08-22 15:10:00,
2013-08-22 08:15:00,59.9,43.7,29.91,West,276,0.0,0.0,55,0.00,,,0.00,Wunderground v.1.15,2013-08-22 15:15:00,
2013-08-22 08:20:00,61.3,44.5,29.91,West,276,0.0,0.0,54,0.00,,,0.00,Wunderground v.1.15,2013-08-22 15:20:00,
2013-08-22 08:30:00,63.2,44.2,29.91,West,276,0.0,0.0,50,0.00,,,0.00,Wunderground v.1.15,2013-08-22 15:30:00,
2013-08-22 08:35:00,63.9,44.4,29.91,West,276,0.0,0.0,49,0.00,,,0.00,Wunderground v.1.15,2013-08-22 15:35:00,
2013-08-22 08:40:00,64.5,44.4,29.91,East,93,0.0,1.0,48,0.00,,,0.00,Wunderground v.1.15,2013-08-22 15:40:00,
2013-08-22 08:45:00,65.3,44.0,29.91,East,93,0.0,1.0,46,0.00,,,0.00,Wunderground v.1.15,2013-08-22 15:45:00,
2013-08-22 08:50:00,66.0,44.6,29.91,East,93,0.0,0.0,46,0.00,,,0.00,Wunderground v.1.15,2013-08-22 15:50:00,
2013-08-22 09:00:00,67.4,45.3,29.91,East,92,0.0,1.0,45,0.00,,,0.00,Wunderground v.1.15,2013-08-22 16:00:00,
2013-08-22 09:05:00,67.9,45.2,29.91,East,80,0.0,1.0,44,0.00,,,0.00,Wunderground v.1.15,2013-08-22 16:05:00,
2013-08-22 09:10:00,68.6,45.2,29.91,East,81,1.0,1.0,43,0.00,,,0.00,Wunderground v.1.15,2013-08-22 16:10:00,
2013-08-22 09:20:00,69.6,46.1,29.90,East,82,0.0,0.0,43,0.00,,,0.00,Wunderground v.1.15,2013-08-22 16:20:00,
2013-08-22 09:30:00,70.1,48.9,29.90,NNW,341,2.0,2.0,47,0.00,,,0.00,Wunderground v.1.15,2013-08-22 16:30:00,
2013-08-22 09:35:00,69.9,49.3,29.90,NW,313,3.0,3.0,48,0.00,,,0.00,Wunderground v.1.15,2013-08-22 16:35:00,
2013-08-22 09:40:00,69.9,48.7,29.90,WNW,296,3.0,3.0,47,0.00,,,0.00,Wunderground v.1.15,2013-08-22 16:40:00,
2013-08-22 09:50:00,71.5,49.6,29.90,NE,38,1.0,3.0,46,0.00,,,0.00,Wunderground v.1.15,2013-08-22 16:50:00,
2013-08-22 09:55:00,71.8,49.9,29.90,NE,50,2.0,3.0,46,0.00,,,0.00,Wunderground v.1.15,2013-08-22 16:55:00,
2013-08-22 10:05:00,72.1,50.2,29.90,ENE,60,2.0,3.0,46,0.00,,,0.00,Wunderground v.1.15,2013-08-22 17:05:00,
2013-08-22 10:10:00,72.3,49.8,29.90,ESE,105,3.0,3.0,45,0.00,,,0.00,Wunderground v.1.15,2013-08-22 17:10:00,
2013-08-22 10:15:00,72.7,49.5,29.90,West,265,3.0,3.0,44,0.00,,,0.00,Wunderground v.1.15,2013-08-22 17:15:00,
2013-08-22 10:20:00,73.0,51.6,29.90,NNW,331,2.0,2.0,47,0.00,,,0.00,Wunderground v.1.15,2013-08-22 17:20:00,
2013-08-22 10:30:00,74.4,51.1,29.90,SE,124,2.0,6.0,44,0.00,,,0.00,Wunderground v.1.15,2013-08-22 17:30:00,
2013-08-22 10:35:00,74.4,49.8,29.90,South,171,3.0,6.0,42,0.00,,,0.00,Wunderground v.1.15,2013-08-22 17:35:00,
2013-08-22 10:40:00,74.9,50.9,29.90,NE,38,3.0,3.0,43,0.00,,,0.00,Wunderground v.1.15,2013-08-22 17:40:00,
2013-08-22 10:45:00,74.4,50.4,29.90,SW,217,3.0,3.0,43,0.00,,,0.00,Wunderground v.1.15,2013-08-22 17:45:00,
2013-08-22 10:55:00,74.9,50.3,29.90,ENE,73,3.0,4.0,42,0.00,,,0.00,Wunderground v.1.15,2013-08-22 17:55:00,
2013-08-22 11:00:00,75.8,50.4,29.90,ENE,75,3.0,3.0,41,0.00,,,0.00,Wunderground v.1.15,2013-08-22 18:00:00,
2013-08-22 11:05:00,76.0,50.6,29.90,East,80,2.0,5.0,41,0.00,,,0.00,Wunderground v.1.15,2013-08-22 18:05:00,
2013-08-22 11:10:00,75.8,50.4,29.90,SW,224,3.0,3.0,41,0.00,,,0.00,Wunderground v.1.15,2013-08-22 18:10:00,
2013-08-22 11:20:00,76.1,50.7,29.90,NNW,341,3.0,5.0,41,0.00,,,0.00,Wunderground v.1.15,2013-08-22 18:20:00,
2013-08-22 11:25:00,75.8,51.1,29.90,NE,52,4.0,5.0,42,0.00,,,0.00,Wunderground v.1.15,2013-08-22 18:25:00,
2013-08-22 11:30:00,75.8,50.4,29.89,NE,42,5.0,5.0,41,0.00,,,0.00,Wunderground v.1.15,2013-08-22 18:30:00,
2013-08-22 11:35:00,77.7,50.1,29.89,NW,306,2.0,5.0,38,0.00,,,0.00,Wunderground v.1.15,2013-08-22 18:35:00,
2013-08-22 11:40:00,78.5,50.1,29.89,East,100,1.0,5.0,37,0.00,,,0.00,Wunderground v.1.15,2013-08-22 18:40:00,
2013-08-22 11:50:00,78.3,48.4,29.89,East,99,3.0,6.0,35,0.00,,,0.00,Wunderground v.1.15,2013-08-22 18:50:00,
2013-08-22 11:55:00,77.6,50.0,29.89,NNE,19,3.0,6.0,38,0.00,,,0.00,Wunderground v.1.15,2013-08-22 18:55:00,
2013-08-22 12:00:00,79.0,51.2,29.89,ESE,123,3.0,3.0,38,0.00,,,0.00,Wunderground v.1.15,2013-08-22 19:00:00,
2013-08-22 12:10:00,79.6,49.5,29.89,ENE,58,3.0,3.0,35,0.00,,,0.00,Wunderground v.1.15,2013-08-22 19:10:00,
2013-08-22 12:15:00,79.9,50.6,29.88,ENE,77,3.0,3.0,36,0.00,,,0.00,Wunderground v.1.15,2013-08-22 19:15:00,
2013-08-22 12:20:00,80.5,49.5,29.88,ENE,58,2.0,2.0,34,0.00,,,0.00,Wunderground v.1.15,2013-08-22 19:20:00,
2013-08-22 12:25:00,79.8,49.7,29.88,ENE,66,3.0,3.0,35,0.00,,,0.00,Wunderground v.1.15,2013-08-22 19:25:00,
2013-08-22 12:30:00,80.5,49.5,29.87,NE,47,4.0,4.0,34,0.00,,,0.00,Wunderground v.1.15,2013-08-22 19:30:00,
2013-08-22 12:40:00,82.0,48.4,29.87,SE,146,3.0,3.0,31,0.00,,,0.00,Wunderground v.1.15,2013-08-22 19:40:00,
2013-08-22 12:45:00,82.8,48.2,29.87,NE,54,2.0,4.0,30,0.00,,,0.00,Wunderground v.1.15,2013-08-22 19:45:00,
2013-08-22 12:50:00,83.2,49.4,29.87,ENE,67,3.0,5.0,31,0.00,,,0.00,Wunderground v.1.15,2013-08-22 19:50:00,
2013-08-22 13:00:00,84.3,47.6,29.87,East,93,2.0,2.0,28,0.00,,,0.00,Wunderground v.1.15,2013-08-22 20:00:00,
2013-08-22 13:05:00,83.8,47.2,29.87,North,5,2.0,3.0,28,0.00,,,0.00,Wunderground v.1.15,2013-08-22 20:05:00,
2013-08-22 13:10:00,83.4,48.7,29.87,SE,128,4.0,8.0,30,0.00,,,0.00,Wunderground v.1.15,2013-08-22 20:10:00,
2013-08-22 13:15:00,83.4,47.8,29.86,ENE,74,3.0,8.0,29,0.00,,,0.00,Wunderground v.1.15,2013-08-22 20:15:00,
2013-08-22 13:25:00,83.6,47.0,29.86,East,93,3.0,5.0,28,0.00,,,0.00,Wunderground v.1.15,2013-08-22 20:25:00,
2013-08-22 13:30:00,83.6,47.0,29.86,NW,312,4.0,6.0,28,0.00,,,0.00,Wunderground v.1.15,2013-08-22 20:30:00,
2013-08-22 13:35:00,84.0,47.4,29.86,North,355,5.0,6.0,28,0.00,,,0.00,Wunderground v.1.15,2013-08-22 20:35:00,
2013-08-22 13:40:00,84.5,48.8,29.86,East,95,5.0,10.0,29,0.00,,,0.00,Wunderground v.1.15,2013-08-22 20:40:00,
2013-08-22 13:45:00,84.1,48.4,29.86,ENE,58,5.0,10.0,29,0.00,,,0.00,Wunderground v.1.15,2013-08-22 20:45:00,
2013-08-22 13:50:00,84.7,48.0,29.86,ENE,65,5.0,7.0,28,0.00,,,0.00,Wunderground v.1.15,2013-08-22 20:50:00,
2013-08-22 14:00:00,84.3,46.7,29.86,East,79,5.0,5.0,27,0.00,,,0.00,Wunderground v.1.15,2013-08-22 21:00:00,
2013-08-22 14:05:00,84.9,48.2,29.86,SE,136,4.0,8.0,28,0.00,,,0.00,Wunderground v.1.15,2013-08-22 21:05:00,
2013-08-22 14:10:00,84.1,46.5,29.86,SW,236,4.0,4.0,27,0.00,,,0.00,Wunderground v.1.15,2013-08-22 21:10:00,
2013-08-22 14:20:00,85.3,47.5,29.85,ENE,58,4.0,4.0,27,0.00,,,0.00,Wunderground v.1.15,2013-08-22 21:20:00,
2013-08-22 14:25:00,85.1,47.4,29.85,SE,136,3.0,4.0,27,0.00,,,0.00,Wunderground v.1.15,2013-08-22 21:25:00,
2013-08-22 14:30:00,86.1,47.2,29.85,ENE,70,4.0,4.0,26,0.00,,,0.00,Wunderground v.1.15,2013-08-22 21:30:00,
2013-08-22 14:35:00,85.9,49.0,29.85,ENE,61,4.0,8.0,28,0.00,,,0.00,Wunderground v.1.15,2013-08-22 21:35:00,
2013-08-22 14:40:00,85.7,46.9,29.85,NNW,341,4.0,4.0,26,0.00,,,0.00,Wunderground v.1.15,2013-08-22 21:40:00,
2013-08-22 14:50:00,86.7,45.6,29.84,NNW,329,4.0,10.0,24,0.00,,,0.00,Wunderground v.1.15,2013-08-22 21:50:00,
2013-08-22 14:55:00,85.5,46.7,29.84,North,360,4.0,10.0,26,0.00,,,0.00,Wunderground v.1.15,2013-08-22 21:55:00,
2013-08-22 15:00:00,85.5,47.7,29.84,SE,136,4.0,8.0,27,0.00,,,0.00,Wunderground v.1.15,2013-08-22 22:00:00,
2013-08-22 15:10:00,85.5,47.7,29.84,East,86,5.0,5.0,27,0.00,,,0.00,Wunderground v.1.15,2013-08-22 22:10:00,
2013-08-22 15:15:00,86.7,47.7,29.83,East,92,4.0,5.0,26,0.00,,,0.00,Wunderground v.1.15,2013-08-22 22:15:00,
2013-08-22 15:20:00,86.3,46.3,29.83,ENE,64,5.0,8.0,25,0.00,,,0.00,Wunderground v.1.15,2013-08-22 22:20:00,
2013-08-22 15:25:00,87.0,46.9,29.83,NNE,31,5.0,8.0,25,0.00,,,0.00,Wunderground v.1.15,2013-08-22 22:25:00,
2013-08-22 15:30:00,87.2,46.0,29.83,NW,313,4.0,6.0,24,0.00,,,0.00,Wunderground v.1.15,2013-08-22 22:30:00,
2013-08-22 15:40:00,86.7,44.5,29.83,NNE,33,6.0,6.0,23,0.00,,,0.00,Wunderground v.1.15,2013-08-22 22:40:00,
2013-08-22 15:45:00,86.7,43.3,29.83,East,85,4.0,6.0,22,0.00,,,0.00,Wunderground v.1.15,2013-08-22 22:45:00,
2013-08-22 15:50:00,86.7,43.3,29.83,NNE,26,3.0,3.0,22,0.00,,,0.00,Wunderground v.1.15,2013-08-22 22:50:00,
2013-08-22 16:00:00,87.0,43.6,29.82,NW,319,5.0,8.0,22,0.00,,,0.00,Wunderground v.1.15,2013-08-22 23:00:00,
2013-08-22 16:05:00,87.4,43.9,29.82,North,349,4.0,8.0,22,0.00,,,0.00,Wunderground v.1.15,2013-08-22 23:05:00,
2013-08-22 16:10:00,87.6,45.2,29.82,North,5,2.0,3.0,23,0.00,,,0.00,Wunderground v.1.15,2013-08-22 23:10:00,
2013-08-22 16:15:00,87.2,43.7,29.81,NE,40,2.0,3.0,22,0.00,,,0.00,Wunderground v.1.15,2013-08-22 23:15:00,
2013-08-22 16:20:00,87.6,44.1,29.81,North,360,3.0,6.0,22,0.00,,,0.00,Wunderground v.1.15,2013-08-22 23:20:00,
2013-08-22 16:25:00,87.4,45.1,29.81,WNW,284,3.0,6.0,23,0.00,,,0.00,Wunderground v.1.15,2013-08-22 23:25:00,
2013-08-22 16:35:00,87.2,43.7,29.81,ESE,115,3.0,3.0,22,0.00,,,0.00,Wunderground v.1.15,2013-08-22 23:35:00,
2013-08-22 16:40:00,87.2,43.7,29.81,East,84,3.0,3.0,22,0.00,,,0.00,Wunderground v.1.15,2013-08-22 23:40:00,
2013-08-22 16:45:00,86.7,44.5,29.81,ESE,123,3.0,3.0,23,0.00,,,0.00,Wunderground v.1.15,2013-08-22 23:45:00,
2013-08-22 16:55:00,86.5,44.3,29.81,NE,36,3.0,6.0,23,0.00,,,0.00,Wunderground v.1.15,2013-08-22 23:55:00,
2013-08-22 17:00:00,86.3,44.1,29.81,East,87,3.0,6.0,23,0.00,,,0.00,Wunderground v.1.15,2013-08-23 00:00:00,
2013-08-22 17:05:00,86.1,44.0,29.81,ESE,107,4.0,6.0,23,0.00,,,0.00,Wunderground v.1.15,2013-08-23 00:05:00,
2013-08-22 17:10:00,85.9,43.8,29.81,NE,36,5.0,5.0,23,0.00,,,0.00,Wunderground v.1.15,2013-08-23 00:10:00,
2013-08-22 17:15:00,86.1,44.0,29.81,NE,46,4.0,5.0,23,0.00,,,0.00,Wunderground v.1.15,2013-08-23 00:15:00,
2013-08-22 17:20:00,85.9,46.0,29.81,East,86,5.0,6.0,25,0.00,,,0.00,Wunderground v.1.15,2013-08-23 00:20:00,
2013-08-22 17:30:00,85.3,45.5,29.81,East,98,6.0,6.0,25,0.00,,,0.00,Wunderground v.1.15,2013-08-23 00:30:00,
2013-08-22 17:35:00,85.3,45.5,29.81,NE,42,5.0,6.0,25,0.00,,,0.00,Wunderground v.1.15,2013-08-23 00:35:00,
2013-08-22 17:40:00,85.1,45.3,29.81,West,265,4.0,4.0,25,0.00,,,0.00,Wunderground v.1.15,2013-08-23 00:40:00,
2013-08-22 17:50:00,85.1,44.2,29.81,East,98,3.0,3.0,24,0.00,,,0.00,Wunderground v.1.15,2013-08-23 00:50:00,
2013-08-22 17:55:00,85.1,45.3,29.81,East,86,2.0,3.0,25,0.00,,,0.00,Wunderground v.1.15,2013-08-23 00:55:00,
2013-08-22 18:00:00,85.1,45.3,29.81,NE,48,2.0,2.0,25,0.00,,,0.00,Wunderground v.1.15,2013-08-23 01:00:00,
2013-08-22 18:10:00,84.3,45.7,29.81,NE,40,3.0,3.0,26,0.00,,,0.00,Wunderground v.1.15,2013-08-23 01:10:00,
2013-08-22 18:15:00,84.0,46.4,29.80,East,92,3.0,3.0,27,0.00,,,0.00,Wunderground v.1.15,2013-08-23 01:15:00,
2013-08-22 18:20:00,83.8,45.3,29.80,NNE,32,3.0,4.0,26,0.00,,,0.00,Wunderground v.1.15,2013-08-23 01:20:00,
2013-08-22 18:30:00,83.2,46.7,29.80,ESE,112,2.0,2.0,28,0.00,,,0.00,Wunderground v.1.15,2013-08-23 01:30:00,
2013-08-22 18:35:00,82.6,46.2,29.80,NE,44,2.0,3.0,28,0.00,,,0.00,Wunderground v.1.15,2013-08-23 01:35:00,
2013-08-22 18:40:00,82.2,44.9,29.80,NE,34,3.0,3.0,27,0.00,,,0.00,Wunderground v.1.15,2013-08-23 01:40:00,
2013-08-22 18:50:00,81.4,46.1,29.80,ESE,110,2.0,5.0,29,0.00,,,0.00,Wunderground v.1.15,2013-08-23 01:50:00,
2013-08-22 18:55:00,81.2,46.8,29.80,ENE,57,3.0,5.0,30,0.00,,,0.00,Wunderground v.1.15,2013-08-23 01:55:00,
2013-08-22 19:00:00,81.1,46.7,29.80,East,98,2.0,2.0,30,0.00,,,0.00,Wunderground v.1.15,2013-08-23 02:00:00,
2013-08-22 19:05:00,80.9,47.4,29.80,ENE,69,1.0,2.0,31,0.00,,,0.00,Wunderground v.1.15,2013-08-23 02:05:00,
2013-08-22 19:15:00,79.6,48.8,29.81,ESE,108,2.0,4.0,34,0.00,,,0.00,Wunderground v.1.15,2013-08-23 02:15:00,
2013-08-22 19:20:00,79.0,49.0,29.81,ENE,76,2.0,2.0,35,0.00,,,0.00,Wunderground v.1.15,2013-08-23 02:20:00,
2013-08-22 19:25:00,78.5,49.3,29.81,East,94,1.0,7.0,36,0.00,,,0.00,Wunderground v.1.15,2013-08-23 02:25:00,
2013-08-22 19:30:00,78.1,49.0,29.81,ESE,102,2.0,3.0,36,0.00,,,0.00,Wunderground v.1.15,2013-08-23 02:30:00,
2013-08-22 19:40:00,77.0,49.4,29.81,East,84,3.0,3.0,38,0.00,,,0.00,Wunderground v.1.15,2013-08-23 02:40:00,
2013-08-22 19:45:00,76.7,49.2,29.81,ENE,65,3.0,4.0,38,0.00,,,0.00,Wunderground v.1.15,2013-08-23 02:45:00,
2013-08-22 19:50:00,76.3,49.5,29.81,East,86,2.0,2.0,39,0.00,,,0.00,Wunderground v.1.15,2013-08-23 02:50:00,
2013-08-22 19:55:00,76.0,49.2,29.81,East,86,1.0,2.0,39,0.00,,,0.00,Wunderground v.1.15,2013-08-23 02:55:00,
2013-08-22 20:00:00,75.4,49.4,29.82,East,86,0.0,0.0,40,0.00,,,0.00,Wunderground v.1.15,2013-08-23 03:00:00,
2013-08-22 20:10:00,74.4,49.2,29.82,East,86,0.0,0.0,41,0.00,,,0.00,Wunderground v.1.15,2013-08-23 03:10:00,
2013-08-22 20:15:00,74.0,49.4,29.82,East,86,0.0,0.0,42,0.00,,,0.00,Wunderground v.1.15,2013-08-23 03:15:00,
2013-08-22 20:20:00,73.2,49.4,29.82,East,86,0.0,0.0,43,0.00,,,0.00,Wunderground v.1.15,2013-08-23 03:20:00,
2013-08-22 20:25:00,72.5,48.7,29.82,East,86,0.0,0.0,43,0.00,,,0.00,Wunderground v.1.15,2013-08-23 03:25:00,
2013-08-22 20:30:00,72.0,49.5,29.83,East,86,0.0,0.0,45,0.00,,,0.00,Wunderground v.1.15,2013-08-23 03:30:00,
2013-08-22 20:40:00,71.3,48.9,29.83,East,86,0.0,0.0,45,0.00,,,0.00,Wunderground v.1.15,2013-08-23 03:40:00,
2013-08-22 20:45:00,70.8,49.0,29.83,East,86,0.0,0.0,46,0.00,,,0.00,Wunderground v.1.15,2013-08-23 03:45:00,
2013-08-22 20:50:00,70.3,49.1,29.83,East,86,0.0,0.0,47,0.00,,,0.00,Wunderground v.1.15,2013-08-23 03:50:00,
2013-08-22 21:00:00,69.3,48.8,29.83,East,86,0.0,0.0,48,0.00,,,0.00,Wunderground v.1.15,2013-08-23 04:00:00,
2013-08-22 21:05:00,68.6,48.7,29.83,East,86,0.0,0.0,49,0.00,,,0.00,Wunderground v.1.15,2013-08-23 04:05:00,
2013-08-22 21:10:00,68.3,48.9,29.83,East,86,0.0,0.0,50,0.00,,,0.00,Wunderground v.1.15,2013-08-23 04:10:00,
2013-08-22 21:15:00,67.8,48.5,29.84,East,86,0.0,0.0,50,0.00,,,0.00,Wunderground v.1.15,2013-08-23 04:15:00,
2013-08-22 21:20:00,67.4,48.1,29.84,East,86,0.0,0.0,50,0.00,,,0.00,Wunderground v.1.15,2013-08-23 04:20:00,
2013-08-22 21:30:00,66.4,48.7,29.84,East,86,0.0,0.0,53,0.00,,,0.00,Wunderground v.1.15,2013-08-23 04:30:00,
2013-08-22 21:35:00,66.0,48.9,29.84,East,86,0.0,0.0,54,0.00,,,0.00,Wunderground v.1.15,2013-08-23 04:35:00,
2013-08-22 21:40:00,65.6,48.5,29.84,East,86,0.0,0.0,54,0.00,,,0.00,Wunderground v.1.15,2013-08-23 04:40:00,
2013-08-22 21:45:00,65.3,48.2,29.84,East,86,0.0,0.0,54,0.00,,,0.00,Wunderground v.1.15,2013-08-23 04:45:00,
2013-08-22 21:55:00,64.8,48.2,29.84,East,86,0.0,0.0,55,0.00,,,0.00,Wunderground v.1.15,2013-08-23 04:55:00,
2013-08-22 22:00:00,64.7,48.2,29.84,East,86,0.0,0.0,55,0.00,,,0.00,Wunderground v.1.15,2013-08-23 05:00:00,
2013-08-22 22:05:00,64.3,48.3,29.84,East,86,0.0,1.0,56,0.00,,,0.00,Wunderground v.1.15,2013-08-23 05:05:00,
2013-08-22 22:10:00,64.7,49.6,29.84,East,86,0.0,0.0,58,0.00,,,0.00,Wunderground v.1.15,2013-08-23 05:10:00,
2013-08-22 22:20:00,66.3,50.1,29.85,SE,141,1.0,1.0,56,0.00,,,0.00,Wunderground v.1.15,2013-08-23 05:20:00,
2013-08-22 22:25:00,66.3,49.2,29.85,SE,136,1.0,1.0,54,0.00,,,0.00,Wunderground v.1.15,2013-08-23 05:25:00,
2013-08-22 22:30:00,65.6,49.0,29.85,SE,136,0.0,0.0,55,0.00,,,0.00,Wunderground v.1.15,2013-08-23 05:30:00,
2013-08-22 22:35:00,64.8,48.7,29.85,SE,136,0.0,0.0,56,0.00,,,0.00,Wunderground v.1.15,2013-08-23 05:35:00,
2013-08-22 22:45:00,63.5,49.4,29.85,SE,136,0.0,0.0,60,0.00,,,0.00,Wunderground v.1.15,2013-08-23 05:45:00,
2013-08-22 22:55:00,62.9,48.8,29.85,SE,136,0.0,0.0,60,0.00,,,0.00,Wunderground v.1.15,2013-08-23 05:55:00,
2013-08-22 23:00:00,62.7,49.1,29.85,SE,136,0.0,0.0,61,0.00,,,0.00,Wunderground v.1.15,2013-08-23 06:00:00,
2013-08-22 23:05:00,62.6,49.4,29.85,SE,136,0.0,0.0,62,0.00,,,0.00,Wunderground v.1.15,2013-08-23 06:05:00,
2013-08-22 23:10:00,62.6,49.8,29.85,SE,136,0.0,0.0,63,0.00,,,0.00,Wunderground v.1.15,2013-08-23 06:10:00,
2013-08-22 23:20:00,62.1,48.9,29.85,SE,136,0.0,0.0,62,0.00,,,0.00,Wunderground v.1.15,2013-08-23 06:20:00,
2013-08-22 23:25:00,61.6,48.9,29.85,SE,136,0.0,0.0,63,0.00,,,0.00,Wunderground v.1.15,2013-08-23 06:25:00,
2013-08-22 23:30:00,61.3,48.6,29.86,SE,136,0.0,0.0,63,0.00,,,0.00,Wunderground v.1.15,2013-08-23 06:30:00,
2013-08-22 23:40:00,60.7,48.0,29.86,SE,136,0.0,0.0,63,0.00,,,0.00,Wunderground v.1.15,2013-08-23 06:40:00,
2013-08-22 23:45:00,60.4,48.2,29.86,SE,136,0.0,2.0,64,0.00,,,0.00,Wunderground v.1.15,2013-08-23 06:45:00,
2013-08-22 23:50:00,60.1,47.9,29.86,SE,136,0.0,0.0,64,0.00,,,0.00,Wunderground v.1.15,2013-08-23 06:50:00,
2013-08-22 23:55:00,59.8,47.6,29.86,SE,136,0.0,0.0,64,0.00,,,0.00,Wunderground v.1.15,2013-08-23 06:55:00,